Monatsübersicht für September 2018

 
Wetter
Zeitraffer
Tageslänge (hh:mm)
Höchsttemperatur in °C
Uhrzeit
Tiefsttemperatur in °C
Uhrzeit
Luftfeuchte (max., in %)
Uhrzeit
Luftfeuchte (min., in %)
Uhrzeit
Luftdruck (max., in hPa)
Uhrzeit
Luftdruck (min., in hPa)
Uhrzeit
Luftdruck (Ø, in hPa)
Regenrate (max, mm/h)
Uhrzeit
Niederschlag in mm
Verdunstung in mm
Solar in W/m² (Ø)
Solar in W/m² (max.)
UV-Index (max.)
Sonnenscheindauer (hh:mm)
Windrichtung (Ø)
Windstärke (Ø in km/h)
Windstärke (Ø in bft)
Windböe (max., in km/h)
Uhrzeit
Windböe (max., in bft)
Uhrzeit
Taupunkt (max., in °C)
Uhrzeit
Taupunkt (min., in °C)
Uhrzeit
Windchill (min., in °C)
Uhrzeit
Gewitterindex (max.)
Uhrzeit
01
13:40
24.8
12:55 Uhr
6.9
06:05 Uhr

93
07:05 Uhr
44
16:55 Uhr
1026.9
23:25 Uhr

1022.5
01:15 Uhr
1024.5
0,000
00:00 Uhr
0,000
3.073
318
870
12:45 Uhr
4.8
13:05 Uhr

09:15:00
2,9
1
20,9
13:30 Uhr

4
13.5
10:55 Uhr
5.6
06:00 Uhr
6.9
06:05 Uhr
7
22:55 Uhr
02
13:36
24.3
16:15 Uhr
13.1
04:05 Uhr

96
07:25 Uhr
54
16:15 Uhr
1027.2
02:55 Uhr

1022.0
22:40 Uhr
1025.0
0,000
00:00 Uhr
0,000
2.159
175
615
14:45 Uhr
3.0
14:40 Uhr

01:55:00
7,7
2
32,2
14:50 Uhr

5
15.0
12:35 Uhr
11.9
04:10 Uhr
12.2
08:45 Uhr
8
20:30 Uhr
03
13:32
29.0
15:15 Uhr
17.3
06:55 Uhr

81
06:50 Uhr
38
16:15 Uhr
1021.9
00:00 Uhr

1016.5
17:40 Uhr
1018.9
0,000
00:00 Uhr
0,000
4.699
367
779
13:25 Uhr
4.3
13:20 Uhr

10:35:00
9,0
2
33,8
18:50 Uhr

5
16.8
11:45 Uhr
12.6
16:55 Uhr
16.2
07:25 Uhr
9
20:35 Uhr
04
13:28
27.6
15:00 Uhr
14.7
06:30 Uhr

91
06:20 Uhr
39
17:05 Uhr
1018.3
22:55 Uhr

1015.8
14:35 Uhr
1016.6
0,000
00:00 Uhr
0,000
3.785
350
803
13:20 Uhr
4.6
12:50 Uhr

09:55:00
5,8
1
25,7
17:15 Uhr

4
15.7
09:55 Uhr
10.6
18:00 Uhr
14.4
07:10 Uhr
9
00:00 Uhr
05
13:24
26.6
12:55 Uhr
13.9
02:20 Uhr

97
03:35 Uhr
42
15:55 Uhr
1019.5
09:10 Uhr

1017.2
18:45 Uhr
1018.3
0,000
00:00 Uhr
0,000
3.429
336
861
13:20 Uhr
4.8
12:55 Uhr

08:00:00
5,3
1
24,1
11:40 Uhr

4
16.7
10:25 Uhr
11.4
18:50 Uhr
13.9
02:20 Uhr
9
04:35 Uhr
06
13:20
25.1
14:50 Uhr
13.5
06:45 Uhr

98
07:40 Uhr
48
15:50 Uhr
1017.7
00:05 Uhr

1011.1
23:45 Uhr
1014.4
0,000
00:00 Uhr
0,000
3.251
317
735
13:25 Uhr
4.1
12:45 Uhr

07:15:00
6,3
1
24,1
11:30 Uhr

4
16.1
10:50 Uhr
11.5
22:35 Uhr
13.4
08:45 Uhr
7
00:00 Uhr
07
13:16
23.4
17:10 Uhr
14.1
08:05 Uhr

94
08:35 Uhr
55
22:05 Uhr
1015.8
23:45 Uhr

1009.5
04:20 Uhr
1011.6
2,400
07:10 Uhr
0,400
2.057
197
672
12:00 Uhr
3.4
14:20 Uhr

04:30:00
3,6
1
30,6
21:10 Uhr

5
16.7
13:55 Uhr
9.3
22:05 Uhr
14.1
08:05 Uhr
8
13:55 Uhr
08
13:12
22.8
16:05 Uhr
8.6
06:45 Uhr

91
06:20 Uhr
38
14:00 Uhr
1021.4
22:00 Uhr

1015.9
00:00 Uhr
1019.4
0,000
00:00 Uhr
0,000
3.480
362
816
13:10 Uhr
4.3
13:00 Uhr

08:55:00
4,0
1
29,0
12:15 Uhr

4
12.0
00:00 Uhr
6.5
13:15 Uhr
8.6
06:45 Uhr
4
00:00 Uhr
09
13:08
26.8
14:30 Uhr
11.4
02:25 Uhr

82
02:30 Uhr
27
16:25 Uhr
1022.0
10:10 Uhr

1020.6
15:55 Uhr
1021.2
0,000
00:00 Uhr
0,000
3.353
339
694
13:40 Uhr
4.2
13:05 Uhr

08:20:00
1,9
0
17,7
15:20 Uhr

3
9.8
10:10 Uhr
4.6
16:30 Uhr
11.4
02:25 Uhr
2
00:15 Uhr
10
13:04
25.7
12:45 Uhr
10.1
03:50 Uhr

84
06:25 Uhr
35
15:25 Uhr
1021.7
01:10 Uhr

1019.7
15:30 Uhr
1020.7
0,000
00:00 Uhr
0,000
2.591
219
687
12:35 Uhr
3.8
12:35 Uhr

04:30:00
2,7
1
20,9
13:55 Uhr

4
11.7
22:25 Uhr
6.9
03:50 Uhr
10.1
03:50 Uhr
4
20:10 Uhr
11
13:00
26.4
15:50 Uhr
14.4
05:30 Uhr

83
06:20 Uhr
38
14:00 Uhr
1021.3
02:35 Uhr

1018.3
18:25 Uhr
1019.8
0,000
00:00 Uhr
0,000
3.658
304
622
12:35 Uhr
4.4
13:25 Uhr

08:10:00
5,2
1
35,4
17:05 Uhr

5
13.2
10:50 Uhr
9.5
14:30 Uhr
14.4
05:30 Uhr
5
21:55 Uhr
12
12:56
27.2
14:10 Uhr
15.4
06:50 Uhr

81
22:55 Uhr
48
13:40 Uhr
1021.8
23:45 Uhr

1017.7
14:05 Uhr
1018.9
0,000
00:00 Uhr
0,000
2.794
221
850
13:35 Uhr
5.2
13:20 Uhr

04:00:00
5,9
1
33,8
14:15 Uhr

5
15.5
15:00 Uhr
10.9
06:30 Uhr
14.1
22:55 Uhr
7
15:00 Uhr
13
12:52
15.9
16:20 Uhr
12.1
07:10 Uhr

95
23:25 Uhr
77
00:30 Uhr
1022.4
10:35 Uhr

1020.4
18:00 Uhr
1021.4
2,400
05:15 Uhr
1,000
0.762
95
194
14:50 Uhr
1.3
12:50 Uhr

00:00:00
2,8
1
14,5
08:50 Uhr

3
12.8
17:55 Uhr
10.8
00:50 Uhr
12.1
07:10 Uhr
5
20:00 Uhr
14
12:48
20.7
12:05 Uhr
11.7
22:50 Uhr

97
01:10 Uhr
56
15:25 Uhr
1021.5
10:20 Uhr

1019.2
18:10 Uhr
1020.4
0,000
00:00 Uhr
0,000
1.626
214
622
12:10 Uhr
3.5
12:00 Uhr

03:30:00
1,0
0
12,9
17:40 Uhr

2
13.2
09:40 Uhr
10.0
22:30 Uhr
11.7
22:50 Uhr
4
00:00 Uhr
15
12:44
21.8
14:25 Uhr
10.2
06:00 Uhr

95
04:35 Uhr
48
15:45 Uhr
1024.6
23:40 Uhr

1018.3
04:05 Uhr
1020.9
0,000
00:00 Uhr
0,000
2.718
275
738
12:50 Uhr
3.8
12:45 Uhr

05:55:00
5,5
1
30,6
11:40 Uhr

5
11.9
02:10 Uhr
8.9
06:30 Uhr
10.2
06:00 Uhr
4
00:20 Uhr


 
Wetter
Zeitraffer
Tageslänge (hh:mm)
Höchsttemperatur in °C
Uhrzeit
Tiefsttemperatur in °C
Uhrzeit
Luftfeuchte (max., in %)
Uhrzeit
Luftfeuchte (min., in %)
Uhrzeit
Luftdruck (max., in hPa)
Uhrzeit
Luftdruck (min., in hPa)
Uhrzeit
Luftdruck (Ø, in hPa)
Regenrate (max, mm/h)
Uhrzeit
Niederschlag in mm
Verdunstung in mm
Solar in W/m² (Ø)
Solar in W/m² (max.)
UV-Index (max.)
Sonnenscheindauer (hh:mm)
Windrichtung (Ø)
Windstärke (Ø in km/h)
Windstärke (Ø in bft)
Windböe (max., in km/h)
Uhrzeit
Windböe (max., in bft)
Uhrzeit
Taupunkt (max., in °C)
Uhrzeit
Taupunkt (min., in °C)
Uhrzeit
Windchill (min., in °C)
Uhrzeit
Gewitterindex (max.)
Uhrzeit
16
12:39
22.3
16:05 Uhr
7.3
06:30 Uhr

94
01:00 Uhr
44
14:40 Uhr
1025.7
08:55 Uhr

1021.7
18:20 Uhr
1023.9
0,000
00:00 Uhr
0,000
2.388
291
659
14:00 Uhr
3.4
12:20 Uhr

08:15:00
1,6
0
22,5
14:00 Uhr

4
12.2
09:50 Uhr
6.2
06:55 Uhr
7.3
06:30 Uhr
3
19:55 Uhr
17
12:36
26.9
14:40 Uhr
7.8
06:20 Uhr

92
06:35 Uhr
29
15:40 Uhr
1021.7
00:10 Uhr

1018.2
17:50 Uhr
1019.9
0,000
00:00 Uhr
0,000
3.099
326
638
13:10 Uhr
3.7
13:10 Uhr

10:10:00
1,9
0
19,3
13:50 Uhr

3
11.2
10:10 Uhr
6.1
06:20 Uhr
7.8
06:20 Uhr
3
19:30 Uhr
18
12:32
30.1
15:50 Uhr
12.1
02:55 Uhr

78
02:55 Uhr
29
15:25 Uhr
1018.5
00:15 Uhr

1013.1
18:30 Uhr
1015.7
0,000
00:00 Uhr
0,000
3.734
344
627
12:55 Uhr
3.7
12:50 Uhr

10:10:00
3,7
1
30,6
14:05 Uhr

5
13.2
12:30 Uhr
8.0
05:15 Uhr
12.1
02:55 Uhr
5
21:35 Uhr
19
12:27
28.6
16:25 Uhr
12.7
06:50 Uhr

87
06:50 Uhr
39
16:25 Uhr
1018.9
09:55 Uhr

1013.9
00:15 Uhr
1016.9
0,000
00:00 Uhr
0,000
3.302
319
580
12:55 Uhr
3.2
12:40 Uhr

09:35:00
2,6
1
24,1
14:55 Uhr

4
15.2
09:55 Uhr
10.2
02:55 Uhr
12.7
06:50 Uhr
7
19:50 Uhr
20
12:23
28.7
16:25 Uhr
13.0
07:10 Uhr

90
07:20 Uhr
38
16:30 Uhr
1019.0
10:00 Uhr

1013.3
23:50 Uhr
1016.5
0,000
00:00 Uhr
0,000
3.124
303
588
11:15 Uhr
3.5
13:10 Uhr

08:45:00
2,3
1
24,1
14:30 Uhr

4
14.7
09:40 Uhr
11.1
06:50 Uhr
13.0
07:10 Uhr
7
19:45 Uhr
21
12:19
30.5
14:20 Uhr
11.9
23:30 Uhr

94
20:15 Uhr
36
14:25 Uhr
1013.2
00:00 Uhr

1002.6
16:15 Uhr
1008.4
2,400
17:50 Uhr
2,000
2.946
234
687
13:35 Uhr
3.5
13:35 Uhr

05:55:00
7,1
2
66,0
16:50 Uhr

8
15.3
17:00 Uhr
10.1
22:35 Uhr
9.4
22:20 Uhr
7
06:05 Uhr
22
12:15
17.5
15:10 Uhr
10.5
04:45 Uhr

90
00:00 Uhr
48
16:00 Uhr
1017.6
10:45 Uhr

1012.1
00:00 Uhr
1015.7
0,000
00:00 Uhr
0,000
2.184
188
805
14:05 Uhr
2.9
12:05 Uhr

03:00:00
8,9
2
35,4
14:30 Uhr

5
10.2
00:00 Uhr
4.8
18:25 Uhr
7.2
07:45 Uhr
2
00:00 Uhr
23
12:11
14.5
13:20 Uhr
8.1
21:25 Uhr

96
22:10 Uhr
63
13:20 Uhr
1016.7
00:05 Uhr

1005.9
18:55 Uhr
1012.4
4,800
16:00 Uhr
12,600
0.940
124
402
11:05 Uhr
2.5
12:30 Uhr

01:20:00
4,7
1
25,7
23:00 Uhr

4
9.4
11:00 Uhr
6.8
14:20 Uhr
4.3
23:30 Uhr
0
00:00 Uhr
24
12:07
13.7
12:40 Uhr
4.7
23:05 Uhr

95
00:05 Uhr
57
16:30 Uhr
1029.9
23:50 Uhr

1012.0
00:00 Uhr
1021.9
7,200
13:15 Uhr
2,000
1.905
231
828
12:35 Uhr
2.7
12:50 Uhr

06:05:00
11,1
2
56,3
16:00 Uhr

7
7.5
01:00 Uhr
3.3
22:50 Uhr
-0.8
13:40 Uhr
0
00:00 Uhr
25
12:03
15.6
16:10 Uhr
2.0
23:50 Uhr

92
06:50 Uhr
39
14:35 Uhr
1038.1
22:55 Uhr

1030.1
00:00 Uhr
1035.3
0,000
00:00 Uhr
0,000
2.337
304
807
12:50 Uhr
2.9
12:35 Uhr

08:40:00
5,6
1
29,0
14:05 Uhr

4
6.4
10:30 Uhr
0.7
23:50 Uhr
2.0
23:50 Uhr
0
00:00 Uhr
26
11:59
16.9
16:55 Uhr
1.2
03:45 Uhr

94
03:55 Uhr
36
17:20 Uhr
1037.8
00:05 Uhr

1027.5
19:10 Uhr
1032.2
0,000
00:00 Uhr
0,000
2.692
261
568
13:55 Uhr
3.3
13:05 Uhr

07:30:00
6,2
1
33,8
12:55 Uhr

5
4.6
23:15 Uhr
0.1
03:45 Uhr
1.2
03:45 Uhr
0
00:00 Uhr
27
11:55
23.5
15:40 Uhr
13.4
05:10 Uhr

84
23:40 Uhr
51
00:00 Uhr
1027.8
00:30 Uhr

1019.1
23:50 Uhr
1025.1
0,000
00:00 Uhr
0,000
3.200
296
722
13:25 Uhr
4.0
13:05 Uhr

08:00:00
6,6
1
30,6
12:10 Uhr

5
13.7
17:05 Uhr
4.3
00:00 Uhr
12.6
03:20 Uhr
6
19:30 Uhr
28
11:51
17.9
13:45 Uhr
4.2
23:50 Uhr

91
02:00 Uhr
36
14:45 Uhr
1027.0
23:35 Uhr

1017.5
03:55 Uhr
1021.3
0,000
00:00 Uhr
0,000
2.819
310
720
13:45 Uhr
3.4
12:55 Uhr

08:05:00
6,5
1
37,0
12:25 Uhr

5
12.2
00:15 Uhr
1.3
15:35 Uhr
4.2
23:50 Uhr
4
00:00 Uhr
29
11:46
16.6
13:10 Uhr
1.2
07:25 Uhr

96
07:05 Uhr
44
12:40 Uhr
1029.7
09:20 Uhr

1024.9
23:45 Uhr
1027.7
0,000
00:00 Uhr
0,000
2.108
301
683
13:00 Uhr
3.2
12:35 Uhr

08:40:00
2,6
1
20,9
13:45 Uhr

4
6.8
10:45 Uhr
0.4
07:20 Uhr
1.2
07:25 Uhr
0
00:00 Uhr
30
11:43
18.2
15:30 Uhr
1.7
06:30 Uhr

94
06:40 Uhr
35
15:20 Uhr
1024.8
00:00 Uhr

1012.4
23:45 Uhr
1018.2
0,000
00:00 Uhr
0,000
2.438
326
564
13:00 Uhr
2.7
13:00 Uhr

09:35:00
2,2
1
24,1
16:00 Uhr

4
5.3
19:20 Uhr
0.6
06:25 Uhr
1.7
06:30 Uhr
0
00:00 Uhr